WZZ2863 EGKK-LHBP

Flight info

Callsign WZZ2863
Flight time N/A
Altitude 33000
Route MIMFO Y312 DVR UL9 KONAN DCT KOK UL607 REMBA DCT MATUG DCT GUBAX DCT BARSU DCT MOOCE DCT RUDNO DCT DEXIT DCT ABLOM DCT XENAK/N0362F230 L175 ANEXA
Aircraft A21N/M-SDE1E2E3FGIJ1J4RWXY/LB1

Departure

Time N/A
Airport London Gatwick Airport (EGKK)

Arrival

Time 2026-05-04 00:02
Airport Budapest Liszt Ferenc International Airport (LHBP)
Time Latitude Longitude Altitude Speed Heading
2026-05-03 23:36 48.19980 16.75785 33052 ft 445 kts 101°
2026-05-03 23:37 48.18653 16.84843 33055 ft 445 kts 101°
2026-05-03 23:37 48.17319 16.93898 33074 ft 445 kts 101°
2026-05-03 23:38 48.15977 17.02904 33084 ft 445 kts 101°
2026-05-03 23:38 48.14626 17.11950 33083 ft 444 kts 101°
2026-05-03 23:39 48.13268 17.20981 33080 ft 444 kts 101°
2026-05-03 23:39 48.11885 17.29930 33076 ft 444 kts 103°
2026-05-03 23:40 48.10024 17.38752 33086 ft 443 kts 106°
2026-05-03 23:40 48.08102 17.47520 33090 ft 443 kts 106°
2026-05-03 23:41 48.06199 17.56188 32700 ft 429 kts 106°
2026-05-03 23:41 48.05288 17.60330 32425 ft 419 kts 106°
2026-05-03 23:41 48.04382 17.64445 32153 ft 415 kts 106°
2026-05-03 23:42 48.03483 17.68522 31894 ft 412 kts 106°
2026-05-03 23:42 48.02586 17.72578 31482 ft 409 kts 107°
2026-05-03 23:42 48.01692 17.76592 30984 ft 406 kts 107°
2026-05-03 23:42 48.00802 17.80591 30481 ft 404 kts 107°
2026-05-03 23:43 47.99920 17.84559 29960 ft 402 kts 107°
2026-05-03 23:43 47.99035 17.88515 29316 ft 401 kts 108°
2026-05-03 23:43 47.97738 17.92215 28288 ft 409 kts 126°
2026-05-03 23:43 47.95854 17.95437 27468 ft 412 kts 132°
2026-05-03 23:44 47.93891 17.98517 26916 ft 407 kts 133°
2026-05-03 23:44 47.91963 18.01567 26208 ft 402 kts 132°
2026-05-03 23:44 47.90118 18.04536 25526 ft 399 kts 131°
2026-05-03 23:44 47.88205 18.07645 24924 ft 394 kts 131°
2026-05-03 23:45 47.86393 18.10603 24386 ft 390 kts 131°
2026-05-03 23:45 47.84570 18.13578 23900 ft 386 kts 131°
2026-05-03 23:45 47.82762 18.16524 23363 ft 382 kts 131°
2026-05-03 23:45 47.80977 18.19425 22850 ft 377 kts 131°
2026-05-03 23:46 47.79212 18.22288 22338 ft 372 kts 131°
2026-05-03 23:46 47.77466 18.25117 21836 ft 368 kts 131°
2026-05-03 23:46 47.75744 18.27905 21363 ft 363 kts 131°
2026-05-03 23:46 47.74042 18.30660 20890 ft 359 kts 131°
2026-05-03 23:47 47.72389 18.33339 20448 ft 355 kts 131°
2026-05-03 23:47 47.70726 18.36025 20021 ft 350 kts 131°
2026-05-03 23:47 47.69083 18.38675 19595 ft 345 kts 131°
2026-05-03 23:47 47.67469 18.41280 19182 ft 341 kts 131°
2026-05-03 23:48 47.65871 18.43855 18775 ft 336 kts 131°
2026-05-03 23:48 47.64295 18.46393 18372 ft 332 kts 131°
2026-05-03 23:48 47.62740 18.48896 17939 ft 328 kts 131°
2026-05-03 23:48 47.61215 18.51347 17537 ft 327 kts 131°
2026-05-03 23:49 47.59675 18.53822 17134 ft 325 kts 131°
2026-05-03 23:49 47.58152 18.56308 16751 ft 325 kts 130°
2026-05-03 23:49 47.56649 18.58797 16385 ft 324 kts 130°
2026-05-03 23:49 47.55147 18.61281 16024 ft 323 kts 130°
2026-05-03 23:50 47.53642 18.63761 15674 ft 323 kts 130°
2026-05-03 23:50 47.52138 18.66231 15323 ft 323 kts 130°
2026-05-03 23:50 47.50637 18.68696 14940 ft 323 kts 130°
2026-05-03 23:50 47.49145 18.71144 14554 ft 325 kts 131°
2026-05-03 23:51 47.47630 18.73633 14171 ft 326 kts 131°
2026-05-03 23:51 47.46122 18.76107 13767 ft 322 kts 131°
2026-05-03 23:51 47.44637 18.78544 13364 ft 316 kts 131°
2026-05-03 23:51 47.43175 18.80934 12983 ft 310 kts 131°
2026-05-03 23:52 47.41742 18.83276 12608 ft 304 kts 131°
2026-05-03 23:52 47.40332 18.85578 12226 ft 299 kts 131°
2026-05-03 23:52 47.38935 18.87855 11855 ft 299 kts 131°
2026-05-03 23:52 47.37531 18.90140 11493 ft 300 kts 131°
2026-05-03 23:53 47.36147 18.92394 11125 ft 300 kts 131°
2026-05-03 23:53 47.34744 18.94683 10755 ft 301 kts 131°
2026-05-03 23:53 47.33336 18.96977 10392 ft 302 kts 131°
2026-05-03 23:53 47.31937 18.99258 10028 ft 296 kts 130°
2026-05-03 23:54 47.30788 19.01712 9567 ft 286 kts 111°
2026-05-03 23:54 47.30394 19.04530 9164 ft 280 kts 92°
2026-05-03 23:54 47.30356 19.07369 8766 ft 281 kts 90°
2026-05-03 23:54 47.30338 19.10253 8378 ft 282 kts 90°
2026-05-03 23:55 47.30305 19.13146 8029 ft 282 kts 91°
2026-05-03 23:55 47.30258 19.16038 7658 ft 281 kts 92°
2026-05-03 23:55 47.30203 19.18905 7276 ft 278 kts 92°
2026-05-03 23:55 47.30142 19.21751 6885 ft 275 kts 92°
2026-05-03 23:56 47.30082 19.24530 6512 ft 274 kts 93°
2026-05-03 23:56 47.30019 19.27339 6115 ft 275 kts 93°
2026-05-03 23:56 47.29953 19.30155 5727 ft 275 kts 93°
2026-05-03 23:56 47.29885 19.32957 5368 ft 272 kts 94°
2026-05-03 23:57 47.29424 19.35609 5002 ft 266 kts 119°
2026-05-03 23:57 47.28343 19.37804 4647 ft 264 kts 128°
2026-05-03 23:57 47.27255 19.39981 4292 ft 263 kts 126°
2026-05-03 23:57 47.26536 19.42412 3927 ft 265 kts 101°
2026-05-03 23:58 47.26604 19.45097 3577 ft 263 kts 75°
2026-05-03 23:58 47.27478 19.47416 3213 ft 261 kts 45°
2026-05-03 23:58 47.29034 19.48649 2977 ft 251 kts
2026-05-03 23:58 47.30674 19.48380 2943 ft 230 kts 332°
2026-05-03 23:59 47.31848 19.46989 2949 ft 212 kts 308°
2026-05-03 23:59 47.32751 19.45274 2973 ft 212 kts 304°
2026-05-03 23:59 47.33646 19.43541 2965 ft 213 kts 306°
2026-05-03 23:59 47.34569 19.41923 2804 ft 196 kts 309°
2026-05-04 00:00 47.35440 19.40473 2559 ft 183 kts 309°
2026-05-04 00:00 47.36262 19.39139 2319 ft 174 kts 309°
2026-05-04 00:00 47.37063 19.37847 2056 ft 166 kts 308°
2026-05-04 00:00 47.37826 19.36620 1781 ft 159 kts 308°
2026-05-04 00:01 47.38569 19.35418 1549 ft 157 kts 308°
2026-05-04 00:01 47.39302 19.34223 1353 ft 156 kts 309°
2026-05-04 00:01 47.40026 19.33044 1174 ft 153 kts 311°
2026-05-04 00:01 47.40745 19.31893 921 ft 151 kts 313°
2026-05-04 00:02 47.41442 19.30768 735 ft 150 kts 313°
2026-05-04 00:02 47.42143 19.29633 527 ft 150 kts 313°
2026-05-04 00:02 47.42778 19.28607 455 ft 108 kts 312°
2026-05-04 00:02 47.43082 19.28118 465 ft 19 kts 313°
2026-05-04 00:03 47.43169 19.27977 467 ft 20 kts 311°
2026-05-04 00:03 47.43263 19.27819 468 ft 21 kts 310°
2026-05-04 00:03 47.43336 19.27617 471 ft 23 kts 289°
2026-05-04 00:03 47.43372 19.27398 467 ft 12 kts 283°
2026-05-04 00:04 47.43390 19.27270 465 ft 14 kts 282°
2026-05-04 00:04 47.43413 19.27124 464 ft 16 kts 286°
2026-05-04 00:04 47.43453 19.26966 464 ft 17 kts 305°
2026-05-04 00:04 47.43535 19.26826 464 ft 19 kts 313°
2026-05-04 00:05 47.43627 19.26677 462 ft 21 kts 312°
2026-05-04 00:05 47.43718 19.26530 463 ft 14 kts 313°
2026-05-04 00:05 47.43752 19.26454 463 ft 7 kts 272°
2026-05-04 00:05 47.43723 19.26380 463 ft 10 kts 224°
2026-05-04 00:06 47.43659 19.26365 463 ft 11 kts 151°
2026-05-04 00:06 47.43601 19.26455 463 ft 11 kts 133°
2026-05-04 00:06 47.43543 19.26548 463 ft 13 kts 133°
2026-05-04 00:06 47.43508 19.26606 463 ft 3 kts 137°
2026-05-04 00:07 47.43481 19.26609 463 ft 5 kts 208°
2026-05-04 00:07 47.43452 19.26576 463 ft 0 kts 221°
2026-05-04 00:07 47.43452 19.26575 463 ft 0 kts 224°